When you browse on this site, cookies collect data to enhance your experience and personalize the content and advertising you see.
Visit our Privacy Policy to learn more. By continuing to use the site, you agree to this use of cookies and data.
  • In United Kingdom
  • List of Countries
  • For 7 days
  • Water Temperature
  • Satellite Maps
  • Weather Map
  • Weather Widgets
  • user-avatar
    Login

    Hourly Weather Minnetonka Mills

    Today, 19 April, Friday

    Time Temperature Precipitation Wind Pressure Humidity
    00:00 +6°C° 0 mm 2 mps 735 mmHg 80%
    01:00 +5°C° 0 mm 2 mps 735 mmHg 81%
    02:00 +5°C° 0 mm 2 mps 735 mmHg 83%
    03:00 +4°C° 0 mm 2 mps 735 mmHg 84%
    04:00 +4°C° 0 mm 2 mps 736 mmHg 83%
    05:00 +4°C° 0 mm 2 mps 736 mmHg 82%
    06:00 +3°C° 0 mm 2 mps 736 mmHg 82%
    07:00 +5°C° 0 mm 2 mps 736 mmHg 73%
    08:00 +7°C° 0 mm 2 mps 736 mmHg 64%
    09:00 +9°C° 0 mm 2 mps 736 mmHg 55%
    10:00 +12°C° 0 mm 2 mps 736 mmHg 48%
    11:00 +13°C° 0 mm 2 mps 736 mmHg 42%
    12:00 +15°C° 0 mm 2 mps 736 mmHg 36%
    13:00 +15°C° 0 mm 2 mps 735 mmHg 34%
    14:00 +16°C° 0 mm 1 mps 735 mmHg 32%
    15:00 +18°C° 0 mm 1 mps 734 mmHg 31%
    16:00 +16°C° 0 mm 1 mps 734 mmHg 33%
    17:00 +16°C° 0 mm 1 mps 734 mmHg 36%
    18:00 +16°C° 0 mm 1 mps 733 mmHg 39%
    19:00 +14°C° 0 mm 1 mps 734 mmHg 42%
    20:00 +13°C° 0 mm 1 mps 734 mmHg 45%
    21:00 +10°C° 0 mm 2 mps 734 mmHg 48%
    22:00 +10°C° 0 mm 2 mps 734 mmHg 50%
    23:00 +9°C° 0 mm 2 mps 733 mmHg 52%

    Tomorrow, 20 April, Saturday

    Time Temperature Precipitation Wind Pressure Humidity
    00:00 +9°C° 0 mm 2 mps 733 mmHg 55%
    01:00 +8°C° 0 mm 3 mps 733 mmHg 56%
    02:00 +8°C° 0 mm 3 mps 732 mmHg 57%
    03:00 +7°C° 0 mm 3 mps 732 mmHg 58%
    04:00 +7°C° 0 mm 3 mps 732 mmHg 59%
    05:00 +7°C° 0 mm 3 mps 732 mmHg 59%
    06:00 +7°C° 0 mm 3 mps 731 mmHg 59%
    07:00 +8°C° 0 mm 4 mps 731 mmHg 55%
    08:00 +10°C° 0 mm 5 mps 731 mmHg 50%
    09:00 +13°C° 0 mm 5 mps 730 mmHg 45%
    10:00 +15°C° 0 mm 5 mps 730 mmHg 43%
    11:00 +17°C° 0 mm 5 mps 730 mmHg 41%
    12:00 +20°C° 0 mm 5 mps 729 mmHg 39%
    13:00 +21°C° 0 mm 5 mps 728 mmHg 39%
    14:00 +22°C° 0 mm 5 mps 728 mmHg 38%
    15:00 +23°C° 0 mm 5 mps 727 mmHg 38%
    16:00 +23°C° 0 mm 4 mps 727 mmHg 42%
    17:00 +22°C° 0 mm 3 mps 727 mmHg 45%
    18:00 +23°C° 0 mm 2 mps 726 mmHg 48%
    19:00 +21°C° 0 mm 2 mps 726 mmHg 52%
    20:00 +19°C° 0 mm 3 mps 727 mmHg 56%
    21:00 +18°C° 0 mm 3 mps 727 mmHg 60%
    22:00 +17°C° 0.2 mm 3 mps 727 mmHg 65%
    23:00 +16°C° 0.2 mm 3 mps 727 mmHg 70%

    Day after tomorrow, 21 April, Sunday

    Time Temperature Precipitation Wind Pressure Humidity
    00:00 +16°C° 0.2 mm 3 mps 727 mmHg 75%
    01:00 +14°C° 0 mm 3 mps 728 mmHg 77%
    02:00 +13°C° 0 mm 4 mps 728 mmHg 80%
    03:00 +13°C° 0 mm 5 mps 728 mmHg 83%
    04:00 +12°C° 0 mm 5 mps 729 mmHg 80%
    05:00 +10°C° 0 mm 5 mps 730 mmHg 78%
    06:00 +9°C° 0 mm 5 mps 730 mmHg 75%
    07:00 +10°C° 0 mm 5 mps 731 mmHg 71%
    08:00 +10°C° 0 mm 5 mps 732 mmHg 67%
    09:00 +12°C° 0 mm 5 mps 732 mmHg 63%
    10:00 +14°C° 0 mm 5 mps 733 mmHg 57%
    11:00 +15°C° 0 mm 5 mps 733 mmHg 51%
    12:00 +16°C° 0 mm 5 mps 734 mmHg 45%
    13:00 +16°C° 0 mm 5 mps 734 mmHg 43%
    14:00 +17°C° 0 mm 5 mps 734 mmHg 41%
    15:00 +17°C° 0 mm 6 mps 735 mmHg 40%
    16:00 +15°C° 0 mm 5 mps 735 mmHg 46%
    17:00 +14°C° 0 mm 4 mps 735 mmHg 52%
    18:00 +13°C° 0 mm 4 mps 735 mmHg 57%
    19:00 +12°C° 0.2 mm 3 mps 736 mmHg 60%
    20:00 +12°C° 0.2 mm 2 mps 737 mmHg 63%
    21:00 +12°C° 0.2 mm 1 mps 737 mmHg 65%
    22:00 +11°C° 0 mm 1 mps 737 mmHg 66%
    23:00 +11°C° 0 mm 1 mps 738 mmHg 66%

    22 April, Monday

    Time Temperature Precipitation Wind Pressure Humidity
    00:00 +11°C° 0 mm 1 mps 738 mmHg 67%
    01:00 +10°C° 0 mm 1 mps 738 mmHg 68%
    02:00 +10°C° 0 mm 1 mps 738 mmHg 69%
    03:00 +8°C° 0 mm 2 mps 738 mmHg 69%
    04:00 +8°C° 0 mm 2 mps 739 mmHg 69%
    05:00 +7°C° 0 mm 2 mps 739 mmHg 68%
    06:00 +7°C° 0 mm 2 mps 740 mmHg 67%
    07:00 +9°C° 0 mm 2 mps 740 mmHg 61%
    08:00 +10°C° 0 mm 3 mps 740 mmHg 55%
    09:00 +12°C° 0 mm 3 mps 741 mmHg 48%
    10:00 +13°C° 0 mm 3 mps 741 mmHg 45%
    11:00 +16°C° 0 mm 3 mps 741 mmHg 41%
    12:00 +17°C° 0 mm 4 mps 741 mmHg 38%
    13:00 +18°C° 0 mm 4 mps 740 mmHg 38%
    14:00 +18°C° 0 mm 4 mps 740 mmHg 37%
    15:00 +19°C° 0 mm 4 mps 740 mmHg 36%
    16:00 +18°C° 0 mm 3 mps 740 mmHg 39%
    17:00 +17°C° 0 mm 3 mps 740 mmHg 42%
    18:00 +17°C° 0 mm 3 mps 741 mmHg 44%
    19:00 +16°C° 0 mm 3 mps 741 mmHg 44%
    20:00 +14°C° 0 mm 4 mps 741 mmHg 44%
    21:00 +13°C° 0 mm 5 mps 742 mmHg 45%
    22:00 +11°C° 0 mm 4 mps 742 mmHg 44%
    23:00 +10°C° 0 mm 4 mps 742 mmHg 43%

    23 April, Tuesday

    Time Temperature Precipitation Wind Pressure Humidity
    00:00 +9°C° 0 mm 3 mps 741 mmHg 43%
    01:00 +9°C° 0 mm 3 mps 742 mmHg 47%
    02:00 +9°C° 0 mm 3 mps 742 mmHg 52%
    03:00 +9°C° 0 mm 2 mps 742 mmHg 57%
    04:00 +8°C° 0 mm 2 mps 742 mmHg 59%
    05:00 +8°C° 0 mm 3 mps 742 mmHg 60%
    06:00 +7°C° 0 mm 3 mps 742 mmHg 62%
    07:00 +8°C° 0 mm 3 mps 742 mmHg 54%
    08:00 +8°C° 0 mm 4 mps 742 mmHg 47%
    09:00 +8°C° 0 mm 4 mps 742 mmHg 40%
    10:00 +10°C° 0 mm 4 mps 741 mmHg 42%
    11:00 +11°C° 0 mm 4 mps 741 mmHg 45%
    12:00 +12°C° 0 mm 4 mps 741 mmHg 48%
    13:00 +12°C° 0.5 mm 5 mps 740 mmHg 53%
    14:00 +10°C° 0.5 mm 5 mps 740 mmHg 58%
    15:00 +9°C° 0.5 mm 5 mps 739 mmHg 62%
    16:00 +8°C° 1.8 mm 5 mps 739 mmHg 68%
    17:00 +7°C° 1.8 mm 5 mps 739 mmHg 73%
    18:00 +6°C° 1.8 mm 5 mps 739 mmHg 79%
    19:00 +6°C° 0.3 mm 5 mps 738 mmHg 79%
    20:00 +5°C° 0.3 mm 5 mps 738 mmHg 79%
    21:00 +5°C° 0.3 mm 5 mps 738 mmHg 80%
    22:00 +5°C° 0.4 mm 5 mps 737 mmHg 82%
    23:00 +5°C° 0.4 mm 5 mps 737 mmHg 84%

    24 April, Wednesday

    Time Temperature Precipitation Wind Pressure Humidity
    00:00 +4°C° 0.4 mm 4 mps 736 mmHg 86%
    01:00 +4°C° 1.1 mm 4 mps 735 mmHg 87%
    02:00 +4°C° 1.1 mm 4 mps 735 mmHg 87%
    03:00 +4°C° 1.1 mm 4 mps 734 mmHg 88%
    04:00 +4°C° 0.3 mm 4 mps 734 mmHg 89%
    05:00 +3°C° 0.3 mm 5 mps 733 mmHg 89%
    06:00 +3°C° 0.3 mm 5 mps 733 mmHg 89%
    07:00 +4°C° 0.7 mm 4 mps 732 mmHg 90%
    08:00 +5°C° 0.7 mm 4 mps 732 mmHg 90%
    09:00 +5°C° 0.7 mm 4 mps 732 mmHg 91%
    10:00 +5°C° 0.6 mm 4 mps 732 mmHg 90%
    11:00 +5°C° 0.6 mm 5 mps 732 mmHg 90%
    12:00 +6°C° 0.6 mm 5 mps 731 mmHg 89%
    13:00 +6°C° 0.3 mm 5 mps 731 mmHg 88%
    14:00 +4°C° 0.3 mm 6 mps 731 mmHg 87%
    15:00 +4°C° 0.3 mm 6 mps 731 mmHg 86%
    16:00 +4°C° 0.2 mm 6 mps 731 mmHg 86%
    17:00 +5°C° 0.2 mm 5 mps 731 mmHg 86%
    18:00 +5°C° 0.2 mm 5 mps 731 mmHg 85%
    19:00 +5°C° 0.1 mm 5 mps 731 mmHg 86%
    20:00 +3°C° 0.1 mm 5 mps 731 mmHg 86%
    21:00 +3°C° 0.1 mm 5 mps 732 mmHg 87%
    22:00 +4°C° 0 mm 4 mps 731 mmHg 87%
    23:00 +4°C° 0 mm 4 mps 731 mmHg 87%
    Show more